Location: Orange
(33.2833°S, 149.1000°E)
Time: 20:28:07
(UTC+10:00)

X-37B - Visible Passes

Search period start: 29 September 2022 00:00
Search period end: 09 October 2022 01:00
Orbit: 330 x 340 km, 45.0° (Epoch: 02 September)

Date Brightness Start Highest point End Pass type
(mag) Time Alt. Az. Time Alt. Az. Time Alt. Az.
29 Sep 2.5 19:49:32 10° SW 19:51:00 25° SSW 19:51:00 25° SSW visible
30 Sep 2.3 18:34:57 10° SSW 18:37:08 19° SSE 18:39:19 10° ESE visible
30 Sep 3.5 20:09:58 10° WSW 20:10:43 16° WSW 20:10:43 16° WSW visible
01 Oct 0.8 18:54:58 10° SW 18:57:45 45° SSE 18:59:16 22° E visible
02 Oct 1.0 20:15:24 10° WSW 20:18:12 49° NW 20:19:09 32° NNE visible
03 Oct 2.9 20:36:47 10° W 20:38:26 14° NW 20:39:09 13° NNW visible
05 Oct 3.1 19:42:11 10° W 19:43:52 14° NW 19:45:33 10° N visible
